Location: Borso
(45.8167°N, 11.8000°E)
Time: 20:50:53
(UTC+00:00)

Daily predictions for brighter satellites

Satellite Brightness Start Highest point End
(mag) Time Altitude Azimuth Time Altitude Azimuth Time Altitude Azimuth
NOSS 3-2 (A) 4.2 17:22:02 10° NW 17:29:26 66° NE 17:37:49 10° SE
Meteor 1-21 4.4 17:31:35 10° NNW 17:37:12 80° W 17:42:47 10° S
Cosmos 2151 Rocket 4.4 17:34:46 10° SSE 17:38:41 31° E 17:42:39 10° NNE
Lacrosse 5 rocket 3.6 17:36:38 10° NW 17:39:45 19° N 17:42:59 10° NE
Cosmos 1975 Rocket 3.2 17:36:11 10° NNW 17:40:30 79° W 17:44:49 10° S
HJ-1C 4.1 17:41:05 10° SE 17:44:05 33° ENE 17:47:06 10° N
COSMO-SKYMED 1 3.4 17:45:54 10° N 17:50:10 57° WNW 17:54:25 10° SSW
Shenzhou-11 Module 3.5 17:50:04 10° S 17:50:52 11° SSE 17:51:32 10° SE
Ariane Rocket 4.1 17:48:31 10° ESE 17:52:38 26° ENE 17:56:46 10° N
Nadezhda 4 Rocket 4.2 17:47:25 10° N 17:53:18 46° ENE 17:59:10 10° SSE
H-2A R/B 2.2 17:48:32 10° SE 17:53:22 53° ENE 17:58:23 10° N
SJ 16-02 4.3 17:52:53 10° W 17:55:29 15° NW 17:58:05 10° NNW
Exosat Rocket 4.1 17:52:42 10° S 17:57:37 34° ESE 18:02:06 10° NE
Cosmos 2263 Rocket 3.9 17:53:41 10° WSW 17:58:45 35° NW 18:03:52 10° NNE
USA 116 3.6 17:56:44 10° NNE 18:00:26 70° ESE 18:04:35 10° S
COSMOS 2406 4.4 17:57:44 10° N 18:02:22 25° NE 18:05:50 15° E
Cosmos 1844 Rocket 2.6 17:57:27 10° SSW 18:02:57 65° ESE 18:08:30 10° NNE
Cosmos 1072 Rocket 4.5 17:56:46 10° S 18:03:02 81° E 18:09:26 10° N
Cosmos 372 Rocket 4.3 17:59:36 10° SSW 18:04:49 71° WNW 18:10:03 10° NNE
Cosmos 1707 3.0 18:01:48 10° NNW 18:05:37 71° W 18:09:25 10° S
Cosmos 1626 3.8 18:04:39 10° NNE 18:07:01 16° ENE 18:07:28 16° ENE
Cosmos 2278 Rocket 4.0 18:10:00 11° ENE 18:10:00 11° ENE 18:10:27 10° ENE
NOSS 3-2 (C) 4.1 18:00:14 10° NW 18:07:42 72° NE 18:16:08 10° SE
CZ-2C R/B 3.7 18:07:40 10° SSW 18:08:00 10° SSW 18:08:20 10° SSW
Cosmos 1844 3.7 18:04:49 10° S 18:10:24 60° ESE 18:15:57 10° NNE
Cosmos 2034 Rocket 4.0 18:04:18 10° S 18:10:33 62° E 18:16:47 10° NNE
NOSS 3-4 (A) 3.9 18:06:37 10° S 18:11:55 36° ESE 18:17:29 10° NE
ISS -2.5 18:08:50 10° W 18:12:00 36° NNW 18:14:49 12° NE
NOSS 3-4 (C) 3.9 18:06:45 10° S 18:12:02 36° ESE 18:17:35 10° NE
USA 186 2.7 18:11:04 20° ESE 18:12:27 28° ENE 18:15:21 10° N
Meteor 2-5 Rocket 4.3 18:08:14 10° N 18:13:30 37° ENE 18:18:15 13° SE
Meteor 1-12 Rocket 4.4 18:08:07 10° S 18:14:00 87° W 18:19:49 10° N
Lacrosse 4 Rocket 3.6 18:14:01 10° NNE 18:15:21 11° NE 18:16:33 10° NE
Cosmos 1300 Rocket 3.8 18:14:54 10° SSW 18:19:18 74° W 18:23:46 10° N
Okean 1 Rocket 3.5 18:18:20 10° SSE 18:22:32 41° E 18:26:45 10° NNE
Resurs 01 Rocket 3.3 18:25:52 16° ENE 18:26:02 16° ENE 18:28:42 10° NNE
Cosmos 2298 Rocket 4.4 18:20:48 10° SSW 18:26:06 69° WNW 18:31:27 10° NNE
SL-14 R/B 4.4 18:22:56 10° NNE 18:26:11 24° ENE 18:26:27 24° E
CENTAUR R/B 3.2 18:18:43 10° NW 18:26:49 84° NE 18:34:46 14° SE
Cosmos 1833 Rocket 3.7 18:23:06 10° N 18:27:58 28° NE 18:30:12 22° E
CSL-04 Rocket 4.2 18:26:06 10° S 18:31:29 64° WSW 18:37:00 10° NNW
Cosmos 1766 3.5 18:29:49 10° SSE 18:33:32 43° E 18:37:18 10° NNE
Okean 2 Rocket 4.0 18:29:32 10° SSW 18:33:54 51° WNW 18:38:17 10° N
YAOGAN 1 4.3 18:30:20 10° SSW 18:34:16 34° W 18:38:13 10° NNW
ATLAS 2AS CENTAUR R/B 3.1 18:26:45 10° SSW 18:34:20 53° ESE 18:41:57 10° NE
Cosmos 1025 Rocket 3.9 18:30:44 10° NNW 18:35:01 52° W 18:39:17 10° S
Cosmos 1634 Rocket 4.2 18:32:32 10° SSE 18:38:19 45° E 18:44:11 10° NNE
ATLAS 3B R/B 3.3 18:32:31 10° NNW 18:39:00 43° NE 18:42:35 25° E
SPOT 3 Rocket 4.3 18:40:10 28° E 18:41:27 32° ENE 18:45:59 10° N
Abrixas rocket 1.7 18:39:11 10° WNW 18:42:01 71° SSW 18:42:11 67° S
CREW DRAGON DEMO-1 DEB 2.7 18:40:55 10° WNW 18:43:57 75° SSW 18:44:16 65° SSE
Cosmos 1536 Rocket 4.3 18:40:26 10° NNW 18:44:49 56° W 18:49:11 10° S
Cosmos 1125 Rocket 3.7 18:41:26 10° SSW 18:46:44 73° WNW 18:52:04 10° NNE
EP 2 4.4 18:45:08 10° SW 18:48:07 88° SE 18:48:34 61° NE
Resurs 1-3 4.2 18:48:54 35° E 18:49:13 36° ENE 18:53:15 10° N
SJ-6B 2.6 18:48:31 46° SE 18:49:24 63° ENE 18:53:10 10° N
Cosmos 1892 Rocket 4.2 18:47:38 10° N 18:51:24 34° ENE 18:51:24 34° ENE
CZ-4 R/B 4.3 18:49:06 10° SW 18:52:03 18° W 18:55:00 10° NW
Cosmos 2195 Rocket 4.4 18:48:57 10° N 18:55:13 75° E 19:00:07 17° SSE
Cosmos 1627 Rocket 4.5 18:50:26 10° N 18:56:51 71° E 19:01:24 20° SSE
Cosmos 1674 3.4 18:53:25 10° NNW 18:57:11 54° W 19:00:17 14° S
Cosmos 2285 Rocket 4.1 18:51:07 10° SSW 18:57:25 81° WNW 19:03:49 10° NNE
Cosmos 2026 Rocket 4.0 18:51:43 10° N 18:58:06 69° E 19:02:16 23° SSE
Cosmos 1092 Rocket 3.9 18:52:04 10° N 18:58:17 88° E 19:04:17 11° S
MOS 1 Rocket 4.3 18:58:59 10° N 19:03:09 43° WNW 19:07:11 10° SW
FREGAT/IRIS 4.3 19:04:41 24° NNW 19:04:41 24° NNW 19:05:52 10° NNW
Cosmos 1428 Rocket 4.4 19:00:23 10° N 19:06:39 74° E 19:10:06 28° SSE
TSX-5 4.0 19:04:52 10° SSW 19:08:42 83° WNW 19:13:40 10° NNE
ARGOS 4.1 19:04:21 10° S 19:09:29 46° W 19:14:40 10° NNW
CZ-2C R/B 2.7 19:07:54 10° NNE 19:13:30 86° WNW 19:19:08 10° SSW
Cosmos 1340 Rocket 3.4 19:15:11 45° NNE 19:15:11 45° NNE 19:18:03 10° NNE
Cosmos 2279 Rocket 4.0 19:12:59 40° SE 19:14:50 54° E 19:20:55 10° NNE
Cosmos 1733 3.5 19:13:48 27° SSW 19:15:45 65° W 19:19:34 10° N
MOS 1 4.4 19:13:05 23° S 19:16:46 75° WSW 19:22:30 10° NNW
Lacrosse 5 rocket 3.1 19:16:30 10° NW 19:20:11 25° NNE 19:20:43 24° NNE
Cosmos 2082 Rocket 2.8 19:15:52 10° NNW 19:21:09 39° NE 19:21:17 39° ENE
Cosmos 2098 Rocket 4.3 19:15:01 10° N 19:21:18 42° ENE 19:21:18 42° ENE
DMSP B5D2-2 4.1 19:18:01 10° NNE 19:23:20 81° WNW 19:28:37 10° SSW
BREEZE-M DEB (TANK) 4.4 19:20:25 10° W 19:24:08 40° SSW 19:27:36 28° SSE
BREEZE-M R/B 3.6 19:16:08 10° W 19:24:14 66° NNW 19:24:25 64° N
OBJECT-B 2.7 19:28:48 28° NNW 19:28:48 28° NNW 19:30:29 10° NNW
Cosmos 2142 Rocket 4.3 19:24:37 25° S 19:28:32 79° E 19:34:45 10° N
Ariane Rocket 3.9 19:28:06 20° SSW 19:31:20 46° W 19:36:15 10° NNW
H-2A R/B 4.4 19:29:26 10° SW 19:33:09 21° W 19:36:58 10° NW
Milstar 3 Cent rocket 4.3 19:30:29 10° SW 19:32:39 13° SSW 19:32:39 13° SSW
USA 234 4.4 19:38:13 25° S 19:38:13 25° S 19:41:06 10° SSW
Terra 4.2 19:42:51 11° NNE 19:42:51 11° NNE 19:43:18 10° NNE
Cosmos 1626 3.6 19:39:00 10° NNW 19:42:02 35° WNW 19:42:02 35° WNW
Okean 1-7 Rocket 4.2 19:38:19 10° N 19:41:51 53° N 19:41:51 53° N
COSMOS 2406 3.4 19:41:32 10° NNW 19:47:09 64° WSW 19:47:56 57° SSW
ISS -1.1 19:46:20 10° WNW 19:47:46 20° NW 19:47:46 20° NW
Cosmos 2278 Rocket 2.2 19:45:08 10° SSW 19:51:32 69° NNE 19:56:30 10° NNE
Lacrosse 4 Rocket 3.0 19:50:43 10° NNW 19:52:52 30° NNW 19:52:52 30° NNW
Cosmos 909 Rocket 4.0 19:53:36 10° NNW 19:59:55 69° NE 19:59:55 69° NE
Cosmos 2266 Rocket 4.2 19:55:38 10° N 20:00:33 55° NNE 20:00:33 55° NNE
Resurs 01 Rocket 2.8 20:03:26 41° NW 20:03:26 41° NW 20:06:28 10° NNW
NOSS 3-4 (A) 4.2 19:56:50 10° WSW 20:02:35 49° NW 20:08:48 10° NNE
NOSS 3-4 (C) 4.2 19:56:56 10° WSW 20:02:41 49° NW 20:08:54 10° NNE
Meteor 2-19 Rocket 4.4 19:57:25 10° NNW 20:03:32 76° W 20:03:47 74° WSW
Cosmos 1833 Rocket 3.2 20:06:41 10° NW 20:11:54 53° W 20:11:54 53° W
Cosmos 2251 Rocket 4.2 20:09:42 10° NNW 20:13:44 51° NNW 20:13:44 51° NNW
ATLAS 2AS CENTAUR R/B 3.8 20:17:50 10° WSW 20:25:32 49° NW 20:33:06 10° NNE
ATLAS 3B R/B 3.1 20:23:13 10° NW 20:29:50 53° WSW 20:29:50 53° WSW
Lacrosse 5 rocket 4.4 20:55:28 10° NW 20:56:20 15° NW 20:56:20 15° NW
Cosmos 2082 Rocket 4.0 21:00:06 10° NW 21:03:08 27° WNW 21:03:08 27° WNW
SL-16 R/B 4.5 23:50:37 23° NNE 23:50:37 23° NNE 23:53:16 10° N
